Location: Unspecified
(34.4950°S, 58.5160°W)
Time: 14:17:12
(UTC+00:00)

Cosmos 1655 Rocket - Pass Details

Date: 08 July 2022
Orbit: 971 x 1005 km, 83.0° (Epoch: 11 August)

Event Time Altitude Azimuth Distance (km) Brightness Sun altitude
Rises 00:23:02 0° 300° (WNW) 3,728 7.7 -41.6°
Reaches altitude 10° 00:27:33 10° 271° (W) 2,792 7.0 -42.5°
Maximum altitude 00:29:55 12° 249° (WSW) 2,645 6.8 -43.0°
Drops below altitude 10° 00:32:17 10° 227° (SW) 2,803 6.8 -43.5°
Sets 00:36:53 0° 197° (SSW) 3,760 7.2 -44.5°
